(2014 FO38) |
Classification: Aten [NEO] SPK-ID: 3666685 |
[ hide orbit diagram ]
For accurate long-term ephemerides, please instead use our Horizons system.This orbit viewer was implemented using two-body methods, and hence should not be used for determining accurate long-term trajectories (over several years or decades) or planetary encounter circumstances.
Orbital Elements at Epoch 2459200.5 (2020-Dec-17.0) TDB
Reference: JPL 16 (heliocentric ecliptic J2000)
Element | Value | Uncertainty (1-sigma) | Units |
e | .403384829041509 | 2.4982e-07 | |
a | .7389676978351593 | 1.6891e-09 | au |
q | .4408793393767261 | 1.8507e-07 | au |
i | 9.711743929525499 | 2.8302e-05 | deg |
node | 10.41392178646911 | 5.8599e-06 | deg |
peri | 14.45949004330882 | 4.9052e-05 | deg |
M | 353.5249585475005 | 0.00010269 | deg |
tp | 2459204.673271708823 (2020-Dec-21.17327171) | 6.6183e-05 | TDB |
period | 232.0259763891119 0.64 | 7.9551e-07 2.178e-09 | d yr |
n | 1.551550415184002 | 5.3196e-09 | deg/d |
Q | 1.037056056293592 | 2.3704e-09 | au |
|
| | Orbit Determination Parameters
Additional Information
|
[ show covariance matrix ]
Physical Parameter Table
Parameter |
Symbol |
Value |
Units |
Sigma |
Reference |
Notes |
absolute magnitude |
H |
26.3 |
|
n/a |
MPO290420 |
|
|
[ show close-approach data ]
|